User: anonymous
Location: Unspecified
(0.0000°N, 0.0000°E)
Time: 00:20:17
(UTC+02:00)
Language:

Delta 2 Rocket - Orbit

View from above orbital plane
View from above orbital plane
View from above satellite
View from above satellite

Ground track
Ground track

The orbit data is extracted from the following two-line orbital elements,

1 20453U 90008B   14274.44514737  .00009667  00000-0  61032-3 0   910
2 20453 035.6285 259.7790 0322793 252.4289 104.0916 14.74220802301467
Epoch (UTC): 01 October 2014 10:41:00
Eccentricity: 0.0322793
inclination: 35.6285°
perigee height: 421 km
apogee height: 874 km
right ascension of ascending node: 259.7790°
argument of perigee: 252.4289°
revolutions per day: 14.74220802
mean anomaly at epoch: 104.0916°
orbit number at epoch: 30146

The dashed part of the orbit path shows where the satellite is in the earth's shadow,  

DLR